Time,TemperatureF,DewpointF,PressureIn,WindDirection,WindDirectionDegrees,WindSpeedMPH,WindSpeedGustMPH,Humidity,HourlyPrecipIn,Conditions,Clouds,dailyrainin,SoftwareType,DateUTC
2013-01-28 00:05:00,43.1,43.1,30.10,West,260,0.0,0.0,100,0.00,,,0.69,Wunderground v.1.15,2013-01-28 08:05:00,
2013-01-28 00:35:00,43.2,43.2,30.11,East,79,0.0,0.0,100,0.00,,,0.00,Wunderground v.1.15,2013-01-28 08:35:00,
2013-01-28 01:05:00,43.2,43.2,30.11,East,83,0.0,0.0,100,0.00,,,0.00,Wunderground v.1.15,2013-01-28 09:05:00,
2013-01-28 01:35:00,43.5,43.5,30.12,East,83,0.0,0.0,100,0.00,,,0.00,Wunderground v.1.15,2013-01-28 09:35:00,
2013-01-28 02:05:00,43.6,43.6,30.13,East,83,0.0,0.0,100,0.00,,,0.00,Wunderground v.1.15,2013-01-28 10:05:00,
2013-01-28 02:35:00,43.1,43.1,30.14,East,83,0.0,0.0,100,0.00,,,0.01,Wunderground v.1.15,2013-01-28 10:35:00,
2013-01-28 03:05:00,43.1,43.1,30.16,East,83,0.0,0.0,100,0.08,,,0.04,Wunderground v.1.15,2013-01-28 11:05:00,
2013-01-28 03:35:00,42.8,42.8,30.16,East,83,0.0,0.0,100,0.00,,,0.04,Wunderground v.1.15,2013-01-28 11:35:00,
2013-01-28 04:05:00,42.8,42.8,30.15,East,83,0.0,0.0,100,0.04,,,0.06,Wunderground v.1.15,2013-01-28 12:05:00,
2013-01-28 04:35:00,42.9,42.9,30.15,East,83,0.0,0.0,100,0.00,,,0.06,Wunderground v.1.15,2013-01-28 12:35:00,
2013-01-28 05:05:00,42.9,42.9,30.16,East,83,0.0,0.0,100,0.00,,,0.06,Wunderground v.1.15,2013-01-28 13:05:00,
2013-01-28 05:35:00,42.6,42.6,30.16,WSW,246,0.0,0.0,100,0.00,,,0.07,Wunderground v.1.15,2013-01-28 13:35:00,
2013-01-28 06:05:00,42.8,42.8,30.17,WSW,241,0.0,0.0,100,0.00,,,0.09,Wunderground v.1.15,2013-01-28 14:05:00,
2013-01-28 06:35:00,42.6,42.6,30.17,WSW,240,0.0,0.0,100,0.17,,,0.12,Wunderground v.1.15,2013-01-28 14:35:00,
2013-01-28 07:05:00,42.8,42.8,30.18,WSW,240,0.0,0.0,100,0.00,,,0.13,Wunderground v.1.15,2013-01-28 15:05:00,
2013-01-28 07:35:00,43.3,43.3,30.19,WSW,240,0.0,0.0,100,0.05,,,0.16,Wunderground v.1.15,2013-01-28 15:35:00,
2013-01-28 08:05:00,43.5,43.5,30.19,WSW,240,0.0,0.0,100,0.05,,,0.18,Wunderground v.1.15,2013-01-28 16:05:00,
2013-01-28 08:35:00,43.6,43.6,30.19,WSW,240,0.0,0.0,100,0.00,,,0.19,Wunderground v.1.15,2013-01-28 16:35:00,
2013-01-28 09:05:00,43.9,43.9,30.20,WSW,240,0.0,0.0,100,0.06,,,0.23,Wunderground v.1.15,2013-01-28 17:05:00,
2013-01-28 09:35:00,44.6,44.6,30.20,WSW,240,0.0,0.0,100,0.00,,,0.24,Wunderground v.1.15,2013-01-28 17:35:00,
2013-01-28 10:05:00,45.7,45.7,30.21,SSW,213,0.0,0.0,100,0.00,,,0.25,Wunderground v.1.15,2013-01-28 18:05:00,
2013-01-28 10:35:00,45.7,45.7,30.21,SSW,213,0.0,0.0,100,0.06,,,0.30,Wunderground v.1.15,2013-01-28 18:35:00,
2013-01-28 11:05:00,45.8,45.8,30.22,SSW,213,0.0,0.0,100,0.00,,,0.33,Wunderground v.1.15,2013-01-28 19:05:00,
2013-01-28 11:35:00,46.4,46.4,30.23,ENE,73,0.0,0.0,100,0.00,,,0.33,Wunderground v.1.15,2013-01-28 19:35:00,
2013-01-28 12:05:00,46.2,46.2,30.23,ENE,73,0.0,0.0,100,0.00,,,0.33,Wunderground v.1.15,2013-01-28 20:05:00,
2013-01-28 12:35:00,46.4,46.4,30.22,South,172,0.0,0.0,100,0.00,,,0.33,Wunderground v.1.15,2013-01-28 20:35:00,
2013-01-28 13:05:00,46.7,46.7,30.22,South,171,0.0,0.0,100,0.00,,,0.33,Wunderground v.1.15,2013-01-28 21:05:00,
2013-01-28 13:35:00,47.0,47.0,30.22,SSE,164,0.0,0.0,100,0.00,,,0.33,Wunderground v.1.15,2013-01-28 21:35:00,
2013-01-28 14:05:00,46.5,46.5,30.22,South,179,0.0,0.0,100,0.00,,,0.33,Wunderground v.1.15,2013-01-28 22:05:00,
2013-01-28 14:35:00,45.8,45.8,30.22,South,182,0.0,0.0,100,0.00,,,0.33,Wunderground v.1.15,2013-01-28 22:35:00,
2013-01-28 15:05:00,46.1,46.1,30.23,SSE,165,0.0,0.0,100,0.00,,,0.33,Wunderground v.1.15,2013-01-28 23:05:00,
2013-01-28 15:35:00,45.8,45.8,30.24,ENE,58,0.0,0.0,100,0.00,,,0.34,Wunderground v.1.15,2013-01-28 23:35:00,
2013-01-28 16:05:00,45.7,45.7,30.24,South,174,0.0,0.0,100,0.00,,,0.34,Wunderground v.1.15,2013-01-29 00:05:00,
2013-01-28 16:35:00,45.5,45.5,30.24,WSW,247,0.0,0.0,100,0.00,,,0.34,Wunderground v.1.15,2013-01-29 00:35:00,
2013-01-28 17:05:00,45.4,45.4,30.25,WSW,240,0.0,0.0,100,0.00,,,0.34,Wunderground v.1.15,2013-01-29 01:05:00,
2013-01-28 17:35:00,45.1,45.1,30.25,WSW,240,0.0,0.0,100,0.00,,,0.36,Wunderground v.1.15,2013-01-29 01:35:00,
2013-01-28 18:05:00,45.1,45.1,30.25,WSW,241,0.0,0.0,100,0.00,,,0.36,Wunderground v.1.15,2013-01-29 02:05:00,
2013-01-28 18:35:00,44.8,44.8,30.25,WSW,241,0.0,0.0,100,0.00,,,0.36,Wunderground v.1.15,2013-01-29 02:35:00,
2013-01-28 19:05:00,44.9,44.9,30.26,WSW,240,0.0,0.0,100,0.00,,,0.36,Wunderground v.1.15,2013-01-29 03:05:00,
2013-01-28 19:35:00,45.1,45.1,30.26,WSW,240,0.0,0.0,100,0.00,,,0.37,Wunderground v.1.15,2013-01-29 03:35:00,
2013-01-28 20:05:00,45.2,45.2,30.27,SW,216,0.0,1.0,100,0.00,,,0.37,Wunderground v.1.15,2013-01-29 04:05:00,
2013-01-28 20:35:00,45.1,45.1,30.28,SW,216,0.0,0.0,100,0.00,,,0.38,Wunderground v.1.15,2013-01-29 04:35:00,
2013-01-28 21:05:00,44.9,44.9,30.27,SW,216,0.0,0.0,100,0.00,,,0.38,Wunderground v.1.15,2013-01-29 05:05:00,
2013-01-28 21:35:00,45.2,45.2,30.27,WSW,239,0.0,0.0,100,0.00,,,0.38,Wunderground v.1.15,2013-01-29 05:35:00,
2013-01-28 22:05:00,44.9,44.9,30.27,WSW,237,0.0,0.0,100,0.00,,,0.38,Wunderground v.1.15,2013-01-29 06:05:00,
2013-01-28 22:35:00,44.9,44.9,30.27,WSW,248,0.0,0.0,100,0.00,,,0.38,Wunderground v.1.15,2013-01-29 06:35:00,
2013-01-28 23:05:00,44.9,44.9,30.28,West,271,0.0,0.0,100,0.00,,,0.38,Wunderground v.1.15,2013-01-29 07:05:00,
2013-01-28 23:35:00,44.8,44.8,30.28,SSW,203,0.0,0.0,100,0.00,,,0.38,Wunderground v.1.15,2013-01-29 07:35:00,